Stations météo

réclame
Mon MeteoGroup
Grünow, Allemagne (10289): Température de l'air & dewpoint: 17.07.2018 09:00:00 - 23.07.2018 09:00:00 (CEST)Grünow, Allemagne (10289): Température de l'air 5cm & Température de l'air -5cm: 17.07.2018 09:00:00 - 23.07.2018 09:00:00 (CEST)Grünow, Allemagne (10289): Température de l'air -20cm & Température de l'air -100cm: 17.07.2018 09:00:00 - 23.07.2018 09:00:00 (CEST)Grünow, Allemagne (10289): Vitesse du vent & gusts: 17.07.2018 09:00:00 - 23.07.2018 09:00:00 (CEST)Grünow, Allemagne (10289): Direction du vent: 17.07.2018 09:00:00 - 23.07.2018 09:00:00 (CEST)Grünow, Allemagne (10289): reduced air pressure: 17.07.2018 09:00:00 - 23.07.2018 09:00:00 (CEST)Grünow, Allemagne (10289): visibility: 17.07.2018 09:00:00 - 23.07.2018 09:00:00 (CEST)Grünow, Allemagne (10289): Ensoleillement: 17.07.2018 09:00:00 - 23.07.2018 09:00:00 (CEST)Grünow, Allemagne (10289): Quantités de précipitations: 17.07.2018 09:00:00 - 23.07.2018 09:00:00 (CEST)
Date & Time tt [°C] td [°C] tt 5cm [°C] tt -5cm [°C] tt -20cm [°C] tt -100cm [°C] ff [km/h] ff [knt] fx [km/h] fx [knt] dd ppp [hPa] vv [km] sd [min] rr [mm]
23.07.2018 09:00:00 20,9 16,3 23,0 22,9 20,9 18,3 13 7 18 10 WNW 1014,8 23 60 0,0
23.07.2018 08:00:00 19,2 16,3 20,3 20,3 21,0 18,3 12 6 16 8 WNW 1014,8 16 60 0,0
23.07.2018 07:00:00 17,4 15,9 17,2 18,5 21,2 18,3 10 5 15 8 WNW 1014,7 9 44 0,0
23.07.2018 06:00:00 15,5 14,9 14,3 18,0 21,6 18,3 8 4 10 5 W 1014,6 5 0 0,0
23.07.2018 05:00:00 15,8 15,0 14,5 18,3 21,9 18,2 9 5 11 6 WSW 1014,2 7 0 0,0
23.07.2018 04:00:00 15,8 15,0 14,7 18,9 22,3 18,2 7 4 9 5 SW 1014,0 8 0 0,0
23.07.2018 03:00:00 - - - - - - - - - - - - - - -
23.07.2018 02:00:00 - - - - - - - - - - - - - - -
23.07.2018 01:00:00 17,8 14,9 15,9 20,9 23,6 18,2 5 3 8 4 WSW 1013,8 14 0 0,0
23.07.2018 00:00:00 19,0 15,0 16,6 21,9 24,0 18,2 6 4 11 6 WSW 1013,8 15 0 0,0
22.07.2018 23:00:00 20,1 15,1 18,4 23,0 24,5 18,2 8 5 11 6 SW 1013,7 18 0 0,0
22.07.2018 22:00:00 21,5 14,2 19,8 24,4 24,9 18,2 9 5 12 6 SW 1013,0 20 0 0,0
22.07.2018 21:00:00 23,3 14,4 21,9 26,3 25,2 18,2 6 3 16 9 SSW 1012,4 24 16 0,0
22.07.2018 20:00:00 25,9 13,3 26,1 28,6 25,4 18,2 10 6 22 12 SW 1012,0 22 60 0,0
22.07.2018 19:00:00 26,8 12,7 27,7 30,6 25,4 18,2 14 7 22 12 WSW 1011,9 27 52 0,0
22.07.2018 18:00:00 26,8 11,8 27,8 32,8 25,1 18,2 10 6 20 11 SW 1012,0 24 55 0,0
22.07.2018 17:00:00 27,4 11,0 30,9 34,7 24,6 18,2 8 4 23 12 SW 1011,9 25 60 0,0
22.07.2018 16:00:00 27,5 10,8 32,0 35,0 23,9 18,1 12 7 24 13 WSW 1012,1 26 60 0,0
22.07.2018 15:00:00 27,5 9,9 32,0 34,5 23,1 18,1 9 5 17 9 WSW 1012,4 30 52 0,0
22.07.2018 14:00:00 26,4 8,4 32,1 33,0 22,4 18,1 6 4 26 14 WSW 1012,8 43 50 0,0
22.07.2018 13:00:00 25,7 8,9 30,1 30,2 21,7 18,1 11 6 18 10 WSW 1012,9 32 42 0,0
22.07.2018 12:00:00 25,1 8,7 28,3 29,2 21,1 18,1 5 3 16 9 SSW 1013,1 31 60 0,0
22.07.2018 11:00:00 24,8 9,0 27,5 27,7 20,5 18,1 8 4 16 9 W 1013,0 35 47 0,0
22.07.2018 10:00:00 24,2 9,1 27,5 25,8 20,1 18,1 5 3 13 7 SSW 1013,0 29 60 0,0
22.07.2018 09:00:00 22,2 9,2 23,8 22,4 19,8 18,1 7 4 10 5 SW 1013,0 30 60 0,0
22.07.2018 08:00:00 19,0 11,6 20,1 19,0 19,9 18,0 5 3 9 5 SW 1012,9 23 37 0,0
22.07.2018 07:00:00 15,8 14,3 15,8 17,3 20,1 18,0 6 3 10 6 SSW 1012,7 11 2 0,0
22.07.2018 06:00:00 14,4 12,9 13,5 17,0 20,4 18,0 5 3 8 4 SW 1012,5 9 0 0,0
22.07.2018 05:00:00 14,9 12,1 13,4 17,2 20,7 18,0 2 1 5 3 N 1012,3 13 0 0,0
22.07.2018 04:00:00 14,2 11,7 12,5 17,1 21,1 18,0 1 1 3 2 N 1012,4 12 0 0,0
22.07.2018 03:00:00 14,5 11,8 12,3 17,9 21,5 18,0 3 1 4 2 NNW 1012,4 15 0 0,0
22.07.2018 02:00:00 15,7 11,7 14,5 18,5 21,9 18,0 2 1 5 3 WSW 1012,7 17 0 0,0
22.07.2018 01:00:00 15,2 11,3 13,5 19,0 22,4 18,0 3 2 6 3 SW 1012,6 18 0 0,0
22.07.2018 00:00:00 16,1 11,0 13,8 19,9 22,9 18,0 2 1 9 5 S 1012,5 15 0 0,0
21.07.2018 23:00:00 19,2 9,7 15,9 21,0 23,4 18,0 8 5 11 6 E 1012,3 28 0 0,0
21.07.2018 22:00:00 18,5 12,0 15,8 22,6 23,8 18,0 7 4 12 7 E 1012,2 30 0 0,0
21.07.2018 21:00:00 21,3 10,8 19,9 24,8 24,1 18,0 7 4 18 10 ENE 1011,8 29 18 0,0
21.07.2018 20:00:00 23,4 11,0 24,2 26,8 24,3 18,0 11 6 18 10 NE 1011,9 28 44 0,0
21.07.2018 19:00:00 24,0 11,2 25,3 29,1 24,3 18,0 11 6 22 12 E 1011,9 32 59 0,0
21.07.2018 18:00:00 24,5 11,1 26,3 30,9 24,1 18,0 12 6 20 11 ENE 1012,1 38 54 0,0
21.07.2018 17:00:00 25,9 10,9 30,9 32,8 23,7 18,0 8 4 23 13 NE 1011,9 26 59 0,0
21.07.2018 16:00:00 24,6 10,1 28,2 31,6 23,2 18,0 7 4 21 11 NNE 1012,1 37 28 0,0
21.07.2018 15:00:00 24,4 10,1 27,9 33,8 22,5 18,0 11 6 22 12 N 1012,5 37 53 0,0
21.07.2018 14:00:00 23,9 9,7 28,9 33,2 21,7 17,9 10 5 28 15 NNE 1012,8 36 58 0,0
21.07.2018 13:00:00 24,0 9,6 31,4 31,9 20,8 17,9 13 7 30 16 NNW 1013,0 29 55 0,0
21.07.2018 12:00:00 23,3 9,6 28,6 30,0 20,0 17,9 16 8 29 16 NNE 1013,2 38 58 0,0
21.07.2018 11:00:00 23,1 10,5 27,9 26,5 19,3 17,9 7 4 22 12 N 1013,1 30 57 0,0
21.07.2018 10:00:00 21,9 9,7 26,4 24,3 18,9 17,9 7 4 16 9 NNE 1013,3 40 60 0,0
21.07.2018 09:00:00 20,1 12,3 22,9 20,4 18,7 17,9 6 3 10 5 N 1013,3 31 59 0,0
21.07.2018 08:00:00 17,1 12,2 18,1 17,7 18,7 17,9 3 2 5 3 W 1013,3 26 60 0,0
21.07.2018 07:00:00 14,9 12,9 15,2 15,4 19,0 17,9 4 2 9 5 SW 1013,1 24 60 0,0
21.07.2018 06:00:00 12,6 10,6 10,8 14,5 19,3 17,9 5 3 10 5 SW 1013,2 26 7 0,0
21.07.2018 05:00:00 11,9 10,4 10,6 14,8 19,7 17,9 7 4 12 7 S 1013,2 22 0 0,0
21.07.2018 04:00:00 11,8 10,7 10,6 15,2 20,1 17,8 8 4 10 5 S 1013,1 18 0 0,0
21.07.2018 03:00:00 12,2 9,9 10,8 15,7 20,6 17,8 6 3 9 5 SW 1013,1 24 0 0,0
21.07.2018 02:00:00 12,3 9,7 10,2 16,5 21,1 17,8 5 3 7 4 SW 1013,5 26 0 0,0
21.07.2018 01:00:00 13,7 11,7 11,1 17,3 21,6 17,8 3 2 8 4 W 1013,6 23 0 0,0
21.07.2018 00:00:00 13,3 11,6 11,4 18,4 22,1 17,8 4 2 7 4 WSW 1013,6 26 0 0,0
20.07.2018 23:00:00 16,4 12,6 13,6 19,8 22,6 17,8 6 4 10 5 ENE 1013,5 44 0 0,0
20.07.2018 22:00:00 18,1 12,9 15,7 21,1 23,1 17,8 6 3 12 7 ENE 1013,3 42 0 0,0
20.07.2018 21:00:00 18,7 8,1 16,4 23,2 23,5 17,9 11 6 16 9 N 1013,1 32 28 0,0
20.07.2018 20:00:00 23,0 4,7 23,1 26,0 23,7 17,9 14 8 24 13 NNW 1013,0 58 60 0,0
20.07.2018 19:00:00 24,5 4,4 25,1 28,6 23,7 17,9 17 9 31 17 WNW 1012,7 54 60 0,0
20.07.2018 18:00:00 25,7 5,7 28,1 30,7 23,4 17,9 19 11 34 18 NW 1012,5 42 60 0,0
20.07.2018 17:00:00 26,6 8,1 29,2 32,2 23,0 17,9 18 10 32 17 W 1012,8 27 58 0,0
20.07.2018 16:00:00 24,7 9,1 26,2 32,3 22,5 17,9 18 10 31 17 WNW 1013,5 45 47 0,0
20.07.2018 15:00:00 25,4 9,4 28,7 32,3 21,8 17,9 22 12 30 16 W 1013,8 51 49 0,0
20.07.2018 14:00:00 24,6 8,2 29,5 33,0 20,9 17,9 21 11 33 18 WNW 1014,1 40 59 0,0
20.07.2018 13:00:00 24,2 8,3 30,9 32,1 20,0 17,9 16 9 31 17 NW 1014,4 22 60 0,0
20.07.2018 12:00:00 23,5 7,9 28,6 29,9 19,1 17,9 10 5 27 15 WNW 1014,6 34 60 0,0
20.07.2018 11:00:00 23,0 8,7 26,3 27,0 18,4 17,9 14 8 28 15 WNW 1014,9 35 60 0,0
20.07.2018 10:00:00 22,3 9,7 25,2 23,2 17,9 17,9 16 9 29 15 NW 1015,1 36 55 0,0
20.07.2018 09:00:00 20,0 13,4 21,7 20,2 17,7 17,9 13 7 18 10 WNW 1015,1 36 60 0,0
20.07.2018 08:00:00 17,3 13,0 18,5 17,0 17,6 17,9 10 5 14 7 WNW 1015,2 35 60 0,0
20.07.2018 07:00:00 14,9 12,0 15,0 14,3 17,8 17,9 4 2 8 5 SW 1015,4 29 60 0,0
20.07.2018 06:00:00 12,1 10,2 10,3 13,3 18,2 17,9 4 2 9 5 SW 1015,5 27 26 0,0
20.07.2018 05:00:00 11,2 9,8 9,6 13,5 18,5 17,9 5 3 8 5 SW 1015,7 23 0 0,0
20.07.2018 04:00:00 12,3 10,2 9,7 14,0 18,9 17,9 5 3 10 6 WSW 1015,7 28 0 0,0
20.07.2018 03:00:00 13,1 10,4 11,1 14,6 19,2 17,9 7 4 10 5 WSW 1015,7 28 0 0,0
20.07.2018 02:00:00 14,2 10,5 11,8 15,3 19,6 17,9 9 5 11 6 W 1016,0 34 0 0,0
20.07.2018 01:00:00 14,9 10,9 12,6 16,0 20,0 17,9 10 6 13 7 WSW 1016,3 34 0 0,0
20.07.2018 00:00:00 15,2 10,4 11,8 16,9 20,5 17,9 5 3 9 5 WNW 1016,3 34 0 0,0
19.07.2018 23:00:00 16,2 10,7 13,0 18,1 20,8 17,9 8 5 12 6 NW 1016,5 40 0 0,0
19.07.2018 22:00:00 17,6 10,1 14,7 19,5 21,1 17,9 8 5 23 12 NW 1016,4 46 8 0,0
19.07.2018 21:00:00 20,2 9,5 19,2 21,6 21,3 17,9 11 6 23 13 NW 1016,3 60 60 0,0
19.07.2018 20:00:00 23,0 9,6 23,4 23,9 21,3 17,9 19 10 28 15 NW 1015,8 50 60 0,0
19.07.2018 19:00:00 24,5 10,9 26,7 25,7 21,1 17,9 20 11 30 16 NNW 1015,5 44 28 0,0
19.07.2018 18:00:00 23,9 10,7 24,5 26,7 20,7 17,9 19 10 39 21 NW 1015,6 53 44 0,0
19.07.2018 17:00:00 25,6 10,7 29,1 27,6 20,2 17,9 20 11 34 18 NW 1015,6 30 33 0,0
19.07.2018 16:00:00 24,5 10,3 26,5 25,9 19,8 17,9 20 11 35 19 NNW 1015,9 37 3 0,0
19.07.2018 15:00:00 23,9 10,7 26,4 24,0 19,4 17,9 22 12 34 18 NNW 1016,0 51 0 0,0
19.07.2018 14:00:00 23,0 12,4 24,8 22,7 19,2 17,9 22 12 35 19 NNW 1016,0 35 0 0,0
19.07.2018 13:00:00 20,6 14,4 22,0 21,3 19,0 17,9 21 12 34 18 NW 1016,4 39 0 0,0
19.07.2018 12:00:00 19,8 15,5 20,8 19,9 18,9 17,9 18 10 32 18 NW 1016,2 36 0 0,0
19.07.2018 11:00:00 18,4 16,3 18,9 18,9 18,9 17,9 21 11 35 19 NW 1016,0 19 0 0,0
19.07.2018 10:00:00 18,2 16,8 18,4 18,7 18,9 17,9 21 11 32 17 NNW 1015,7 13 0 0,0
19.07.2018 09:00:00 18,5 17,2 18,6 18,6 18,9 17,9 17 9 31 17 NNW 1015,3 16 0 0,0
19.07.2018 08:00:00 18,3 17,5 18,0 18,4 19,0 17,9 19 11 29 16 NNW 1015,1 12 0 0,0
19.07.2018 07:00:00 18,4 17,4 18,3 18,1 19,0 17,9 15 8 24 13 NNW 1014,8 16 0 0,0
19.07.2018 06:00:00 18,2 17,2 18,1 17,9 19,1 17,9 15 8 22 12 NW 1014,5 20 0 0,0
19.07.2018 05:00:00 17,8 17,1 17,4 17,6 19,2 17,9 16 9 29 16 NW 1014,4 10 0 0,0
19.07.2018 04:00:00 18,1 15,6 17,8 17,2 19,4 17,9 17 9 29 16 WNW 1014,2 23 0 0,0
19.07.2018 03:00:00 17,8 14,9 16,7 16,7 19,6 17,9 18 10 27 14 WNW 1014,3 26 0 0,0
19.07.2018 02:00:00 18,4 14,4 17,2 17,0 19,9 17,9 18 10 25 13 WNW 1014,4 30 0 0,0
19.07.2018 01:00:00 18,2 14,1 16,8 17,4 20,2 17,9 14 8 21 11 WNW 1014,4 30 0 0,0
19.07.2018 00:00:00 18,5 14,7 17,3 18,0 20,4 17,9 13 7 23 12 WNW 1014,5 23 0 0,0
18.07.2018 23:00:00 19,8 15,2 18,6 18,7 20,7 17,9 14 8 26 14 WNW 1014,3 22 0 0,0
18.07.2018 22:00:00 20,7 15,7 19,5 19,6 21,0 17,9 16 9 23 12 NW 1014,4 22 0 0,0
18.07.2018 21:00:00 22,0 15,5 21,0 20,9 21,1 17,9 13 7 24 13 NW 1014,2 28 7 0,0
18.07.2018 20:00:00 22,7 15,8 22,2 22,1 21,2 17,9 18 10 34 19 NNW 1014,0 26 28 0,0
18.07.2018 19:00:00 23,7 15,5 24,0 23,3 21,2 17,9 19 10 35 19 NW 1013,7 30 42 0,0
18.07.2018 18:00:00 24,6 15,6 26,0 24,5 21,0 17,9 23 12 35 19 NW 1013,5 24 45 0,0
18.07.2018 17:00:00 25,1 15,3 26,6 25,6 20,7 17,9 24 13 37 20 NW 1013,3 31 53 0,0
18.07.2018 16:00:00 26,2 15,4 28,8 24,7 20,5 17,9 26 14 36 19 NW 1013,1 24 33 0,0
18.07.2018 15:00:00 24,6 15,2 26,4 24,4 20,2 17,9 22 12 35 19 NW 1013,3 28 34 0,0
18.07.2018 14:00:00 22,8 16,6 24,0 22,9 20,0 17,9 20 11 32 17 WNW 1013,5 28 1 0,0
18.07.2018 13:00:00 20,8 17,2 21,5 22,7 19,9 17,9 19 10 32 17 WNW 1013,7 19 2 0,0
18.07.2018 12:00:00 20,5 18,1 20,0 21,6 19,8 17,9 17 9 32 17 NW 1013,5 10 0 0,5
18.07.2018 11:00:00 19,7 17,9 19,3 21,2 19,6 17,9 14 8 30 16 NW 1013,5 11 0 0,0
18.07.2018 10:00:00 19,4 17,7 19,4 21,0 19,5 17,9 18 10 27 15 NW 1013,3 16 0 0,3
18.07.2018 09:00:00 18,5 17,4 18,4 19,5 19,5 17,9 16 9 24 13 NW 1013,0 13 0 0,6
18.07.2018 08:00:00 18,1 17,2 17,8 18,7 19,6 17,9 14 7 22 12 NW 1012,6 13 0 0,2
18.07.2018 07:00:00 18,1 17,2 17,6 18,4 19,7 17,9 14 7 26 14 NW 1012,2 13 0 0,2
18.07.2018 06:00:00 18,1 17,1 17,4 18,3 19,9 17,9 17 9 24 13 NNW 1011,7 13 0 0,1
18.07.2018 05:00:00 18,4 16,7 17,4 18,4 20,0 17,8 13 7 23 12 N 1011,6 12 0 0,1
18.07.2018 04:00:00 18,1 17,2 17,5 18,5 20,2 17,8 14 8 30 16 NW 1011,5 9 0 0,1
18.07.2018 03:00:00 18,3 16,8 17,8 18,7 20,4 17,8 12 6 22 12 NNW 1011,4 12 0 0,0
18.07.2018 02:00:00 18,8 16,5 18,3 19,0 20,6 17,8 12 7 19 10 NNW 1011,3 22 0 0,0
18.07.2018 01:00:00 18,7 16,5 18,1 19,3 20,8 17,8 9 5 13 7 NW 1011,5 19 0 0,0
18.07.2018 00:00:00 18,7 16,8 17,8 19,5 21,0 17,8 7 4 12 6 NNW 1011,4 17 0 0,0
17.07.2018 23:00:00 18,8 17,2 18,3 19,9 21,2 17,8 6 4 9 5 NW 1011,5 16 0 0,0
17.07.2018 22:00:00 19,0 17,1 17,8 20,4 21,4 17,8 7 4 12 7 NW 1011,5 20 0 0,0
17.07.2018 21:00:00 20,3 17,5 19,9 21,5 21,6 17,8 8 4 15 8 N 1011,4 25 0 0,0
17.07.2018 20:00:00 20,9 17,1 20,9 22,2 21,8 17,8 9 5 21 11 NNW 1011,4 29 0 0,0
17.07.2018 19:00:00 21,4 16,8 21,7 22,8 21,9 17,8 13 7 23 13 N 1011,6 31 0 0,0
17.07.2018 18:00:00 22,0 16,1 22,5 23,7 21,9 17,8 15 8 30 16 N 1011,6 30 0 0,0
17.07.2018 17:00:00 22,5 16,5 23,2 24,4 21,9 17,7 17 9 29 15 N 1011,7 28 0 0,0
17.07.2018 16:00:00 22,9 16,6 23,8 25,7 21,8 17,7 19 10 29 16 N 1011,5 26 0 0,0
17.07.2018 15:00:00 23,7 15,5 25,7 27,2 21,4 17,7 17 9 30 16 N 1011,6 27 0 0,0
17.07.2018 14:00:00 24,9 15,9 27,9 27,5 21,0 17,7 16 9 29 15 NNW 1011,4 31 0 0,0
17.07.2018 13:00:00 24,0 15,9 27,4 26,4 20,7 17,7 19 10 27 14 N 1011,6 28 4 0,0
17.07.2018 12:00:00 22,5 16,3 25,0 23,9 20,4 17,7 16 8 23 12 N 1011,8 25 0 0,0
17.07.2018 11:00:00 21,9 16,4 24,0 22,9 20,2 17,7 9 5 20 11 N 1011,7 31 0 0,0
17.07.2018 10:00:00 21,7 16,6 23,3 22,8 20,1 17,7 15 8 22 12 N 1011,8 24 5 0,0
17.07.2018 09:00:00 20,6 15,9 22,1 20,7 20,0 17,6 12 6 17 9 NNW 1011,9 18 0 0,0

tt = Température de l'air
td = dewpoint
tt 5cm = Température de l'air 5cm
tt -5cm = Température de l'air -5cm
tt -20cm = Température de l'air -20cm
tt -100cm = Température de l'air -100cm
ff = Vitesse du vent
fx = gusts
dd = Direction du vent
ppp = reduced air pressure
vv = visibility
sd = Ensoleillement
rr = Quantités de précipitations

stations d'obs. à proximité